When you browse on this site, cookies collect data to enhance your experience and personalize the content and advertising you see.
Visit our Privacy Policy to learn more. By continuing to use the site, you agree to this use of cookies and data.
  • In Austria
  • List of Countries
  • For 7 days
  • Water Temperature
  • Weather Map
  • News
  • Weather Widgets
  • user-avatar
    Login

    Hourly Weather Ganja

    Today, 22 October, Tuesday

    Time Temperature Precipitation Wind Pressure Humidity
    00:00 +15°C° 0 mm 2 mps 730 mmHg 65%
    01:00 +15°C° 0 mm 2 mps 730 mmHg 68%
    02:00 +14°C° 0 mm 1 mps 729 mmHg 71%
    03:00 +14°C° 0 mm 1 mps 729 mmHg 74%
    04:00 +13°C° 0 mm 1 mps 729 mmHg 76%
    05:00 +13°C° 0 mm 1 mps 729 mmHg 77%
    06:00 +13°C° 0 mm 1 mps 729 mmHg 78%
    07:00 +14°C° 0 mm 1 mps 729 mmHg 73%
    08:00 +15°C° 0 mm 1 mps 730 mmHg 68%
    09:00 +18°C° 0 mm 1 mps 730 mmHg 62%
    10:00 +18°C° 0 mm 1 mps 730 mmHg 59%
    11:00 +18°C° 0 mm 2 mps 729 mmHg 55%
    12:00 +19°C° 0 mm 2 mps 729 mmHg 51%
    13:00 +20°C° 0 mm 2 mps 729 mmHg 49%
    14:00 +20°C° 0 mm 2 mps 729 mmHg 47%
    15:00 +20°C° 0 mm 2 mps 728 mmHg 46%
    16:00 +19°C° 0 mm 2 mps 728 mmHg 49%
    17:00 +18°C° 0 mm 2 mps 729 mmHg 52%
    18:00 +17°C° 0 mm 2 mps 729 mmHg 54%
    19:00 +18°C° 0 mm 1 mps 729 mmHg 56%
    20:00 +16°C° 0 mm 1 mps 729 mmHg 57%
    21:00 +16°C° 0 mm 1 mps 729 mmHg 59%
    22:00 +16°C° 0 mm 1 mps 729 mmHg 60%
    23:00 +15°C° 0 mm 1 mps 729 mmHg 62%

    Tomorrow, 23 October, Wednesday

    Time Temperature Precipitation Wind Pressure Humidity
    00:00 +15°C° 0 mm 1 mps 729 mmHg 64%
    01:00 +14°C° 0 mm 1 mps 729 mmHg 68%
    02:00 +14°C° 0 mm 1 mps 729 mmHg 71%
    03:00 +13°C° 0 mm 1 mps 729 mmHg 74%
    04:00 +13°C° 0 mm 1 mps 729 mmHg 76%
    05:00 +12°C° 0 mm 1 mps 729 mmHg 79%
    06:00 +12°C° 0 mm 1 mps 728 mmHg 81%
    07:00 +13°C° 0 mm 1 mps 729 mmHg 74%
    08:00 +15°C° 0 mm 1 mps 729 mmHg 68%
    09:00 +16°C° 0 mm 1 mps 729 mmHg 61%
    10:00 +18°C° 0 mm 1 mps 729 mmHg 57%
    11:00 +18°C° 0 mm 2 mps 729 mmHg 53%
    12:00 +19°C° 0 mm 2 mps 728 mmHg 50%
    13:00 +20°C° 0 mm 2 mps 728 mmHg 48%
    14:00 +20°C° 0 mm 2 mps 728 mmHg 47%
    15:00 +21°C° 0 mm 2 mps 727 mmHg 46%
    16:00 +19°C° 0 mm 2 mps 728 mmHg 51%
    17:00 +18°C° 0 mm 2 mps 728 mmHg 55%
    18:00 +17°C° 0 mm 2 mps 728 mmHg 60%
    19:00 +17°C° 0 mm 2 mps 728 mmHg 61%
    20:00 +16°C° 0 mm 1 mps 729 mmHg 63%
    21:00 +16°C° 0 mm 1 mps 729 mmHg 64%
    22:00 +15°C° 0 mm 1 mps 729 mmHg 69%
    23:00 +15°C° 0 mm 1 mps 729 mmHg 73%

    Day after tomorrow, 24 October, Thursday

    Time Temperature Precipitation Wind Pressure Humidity
    00:00 +14°C° 0 mm 2 mps 729 mmHg 77%
    01:00 +14°C° 0 mm 1 mps 729 mmHg 79%
    02:00 +13°C° 0 mm 1 mps 729 mmHg 81%
    03:00 +13°C° 0 mm 1 mps 729 mmHg 84%
    04:00 +13°C° 0 mm 1 mps 729 mmHg 84%
    05:00 +12°C° 0 mm 1 mps 729 mmHg 85%
    06:00 +11°C° 0 mm 0 mps 729 mmHg 86%
    07:00 +13°C° 0 mm 1 mps 729 mmHg 80%
    08:00 +15°C° 0 mm 1 mps 729 mmHg 74%
    09:00 +16°C° 0 mm 1 mps 729 mmHg 68%
    10:00 +18°C° 0 mm 1 mps 729 mmHg 65%
    11:00 +18°C° 0 mm 2 mps 728 mmHg 62%
    12:00 +19°C° 0 mm 2 mps 728 mmHg 59%
    13:00 +19°C° 0 mm 2 mps 728 mmHg 58%
    14:00 +20°C° 0 mm 2 mps 728 mmHg 57%
    15:00 +20°C° 0 mm 2 mps 728 mmHg 55%
    16:00 +19°C° 0 mm 2 mps 728 mmHg 59%
    17:00 +18°C° 0 mm 2 mps 728 mmHg 62%
    18:00 +19°C° 0 mm 1 mps 728 mmHg 65%
    19:00 +18°C° 0.1 mm 1 mps 728 mmHg 68%
    20:00 +18°C° 0.1 mm 1 mps 728 mmHg 70%
    21:00 +16°C° 0.1 mm 1 mps 728 mmHg 73%
    22:00 +16°C° 0 mm 1 mps 728 mmHg 75%
    23:00 +16°C° 0 mm 1 mps 728 mmHg 77%

    25 October, Friday

    Time Temperature Precipitation Wind Pressure Humidity
    00:00 +15°C° 0 mm 1 mps 728 mmHg 79%
    01:00 +15°C° 0 mm 1 mps 728 mmHg 80%
    02:00 +15°C° 0 mm 1 mps 728 mmHg 80%
    03:00 +15°C° 0 mm 1 mps 727 mmHg 81%
    04:00 +15°C° 0 mm 1 mps 727 mmHg 81%
    05:00 +14°C° 0 mm 1 mps 727 mmHg 82%
    06:00 +14°C° 0 mm 1 mps 727 mmHg 82%
    07:00 +15°C° 0 mm 1 mps 727 mmHg 77%
    08:00 +16°C° 0 mm 1 mps 727 mmHg 73%
    09:00 +18°C° 0 mm 1 mps 727 mmHg 68%
    10:00 +19°C° 0 mm 1 mps 727 mmHg 64%
    11:00 +19°C° 0 mm 2 mps 727 mmHg 61%
    12:00 +20°C° 0 mm 2 mps 726 mmHg 57%
    13:00 +20°C° 0 mm 2 mps 726 mmHg 56%
    14:00 +21°C° 0 mm 2 mps 726 mmHg 55%
    15:00 +21°C° 0 mm 2 mps 726 mmHg 53%
    16:00 +20°C° 0 mm 2 mps 726 mmHg 58%
    17:00 +19°C° 0 mm 2 mps 726 mmHg 62%
    18:00 +18°C° 0 mm 2 mps 727 mmHg 66%
    19:00 +17°C° 0 mm 2 mps 727 mmHg 68%
    20:00 +17°C° 0 mm 2 mps 727 mmHg 69%
    21:00 +17°C° 0 mm 2 mps 728 mmHg 71%
    22:00 +16°C° 0 mm 1 mps 727 mmHg 74%
    23:00 +15°C° 0 mm 1 mps 727 mmHg 78%

    26 October, Saturday

    Time Temperature Precipitation Wind Pressure Humidity
    00:00 +15°C° 0 mm 1 mps 727 mmHg 81%
    01:00 +15°C° 0 mm 1 mps 727 mmHg 83%
    02:00 +14°C° 0 mm 1 mps 727 mmHg 85%
    03:00 +14°C° 0 mm 1 mps 728 mmHg 87%
    04:00 +13°C° 0 mm 0 mps 728 mmHg 88%
    05:00 +13°C° 0 mm 0 mps 728 mmHg 88%
    06:00 +13°C° 0 mm 0 mps 728 mmHg 88%
    07:00 +14°C° 0 mm 0 mps 728 mmHg 85%
    08:00 +15°C° 0 mm 1 mps 729 mmHg 82%
    09:00 +16°C° 0 mm 1 mps 729 mmHg 78%
    10:00 +17°C° 0.2 mm 2 mps 729 mmHg 77%
    11:00 +18°C° 0.2 mm 2 mps 729 mmHg 76%
    12:00 +18°C° 0.2 mm 3 mps 728 mmHg 74%
    13:00 +18°C° 0.1 mm 3 mps 728 mmHg 72%
    14:00 +19°C° 0.1 mm 3 mps 728 mmHg 70%
    15:00 +19°C° 0.1 mm 3 mps 728 mmHg 69%
    16:00 +18°C° 0 mm 3 mps 728 mmHg 71%
    17:00 +17°C° 0 mm 3 mps 728 mmHg 73%
    18:00 +17°C° 0 mm 3 mps 729 mmHg 76%
    19:00 +16°C° 0 mm 2 mps 729 mmHg 76%
    20:00 +16°C° 0 mm 2 mps 729 mmHg 76%
    21:00 +16°C° 0 mm 2 mps 729 mmHg 76%
    22:00 +15°C° 0 mm 2 mps 729 mmHg 77%
    23:00 +15°C° 0 mm 2 mps 729 mmHg 78%

    27 October, Sunday

    Time Temperature Precipitation Wind Pressure Humidity
    00:00 +14°C° 0 mm 1 mps 728 mmHg 79%
    01:00 +14°C° 0 mm 1 mps 728 mmHg 81%
    02:00 +14°C° 0 mm 1 mps 728 mmHg 83%
    03:00 +13°C° 0 mm 1 mps 728 mmHg 85%
    04:00 +13°C° 0 mm 1 mps 728 mmHg 85%
    05:00 +12°C° 0 mm 0 mps 728 mmHg 86%
    06:00 +12°C° 0 mm 0 mps 728 mmHg 87%
    07:00 +13°C° 0 mm 0 mps 728 mmHg 82%
    08:00 +15°C° 0 mm 1 mps 728 mmHg 77%
    09:00 +16°C° 0 mm 1 mps 728 mmHg 73%
    10:00 +16°C° 0 mm 1 mps 728 mmHg 68%
    11:00 +17°C° 0 mm 2 mps 727 mmHg 63%
    12:00 +18°C° 0 mm 2 mps 727 mmHg 58%
    13:00 +18°C° 0 mm 2 mps 726 mmHg 55%
    14:00 +19°C° 0 mm 2 mps 726 mmHg 53%
    15:00 +20°C° 0 mm 1 mps 726 mmHg 50%
    16:00 +19°C° 0 mm 1 mps 725 mmHg 51%
    17:00 +18°C° 0 mm 1 mps 725 mmHg 52%
    18:00 +16°C° 0 mm 1 mps 725 mmHg 53%
    19:00 +16°C° 0 mm 1 mps 725 mmHg 55%
    20:00 +15°C° 0 mm 1 mps 725 mmHg 58%
    21:00 +15°C° 0 mm 1 mps 725 mmHg 60%
    22:00 +15°C° 0 mm 1 mps 725 mmHg 61%
    23:00 +13°C° 0 mm 0 mps 725 mmHg 63%

    28 October, Monday

    Time Temperature Precipitation Wind Pressure Humidity
    00:00 +13°C° 0 mm 0 mps 725 mmHg 65%
    01:00 +13°C° 0 mm 1 mps 724 mmHg 66%
    02:00 +13°C° 0 mm 1 mps 724 mmHg 67%
    03:00 +13°C° 0 mm 1 mps 724 mmHg 68%
    04:00 +13°C° 0 mm 1 mps 724 mmHg 69%
    05:00 +13°C° 0 mm 1 mps 724 mmHg 70%
    06:00 +13°C° 0 mm 1 mps 724 mmHg 71%
    07:00 +14°C° 0 mm 1 mps 724 mmHg 66%
    08:00 +16°C° 0 mm 2 mps 724 mmHg 61%
    09:00 +17°C° 0 mm 2 mps 724 mmHg 55%
    10:00 +18°C° 0 mm 2 mps 724 mmHg 53%
    11:00 +19°C° 0 mm 2 mps 724 mmHg 50%
    12:00 +20°C° 0 mm 2 mps 724 mmHg 47%
    13:00 +20°C° 0 mm 2 mps 723 mmHg 46%
    14:00 +21°C° 0 mm 1 mps 723 mmHg 46%
    15:00 +22°C° 0 mm 1 mps 723 mmHg 45%
    16:00 +21°C° 0 mm 1 mps 723 mmHg 48%
    17:00 +20°C° 0 mm 1 mps 723 mmHg 51%
    18:00 +19°C° 0 mm 1 mps 724 mmHg 54%
    19:00 +18°C° 0 mm 1 mps 724 mmHg 56%
    20:00 +18°C° 0 mm 1 mps 724 mmHg 57%
    21:00 +16°C° 0 mm 1 mps 725 mmHg 59%
    22:00 +16°C° 0 mm 1 mps 725 mmHg 60%
    23:00 +15°C° 0 mm 1 mps 725 mmHg 61%
    Show more